Time,TemperatureF,DewpointF,PressureIn,WindDirection,WindDirectionDegrees,WindSpeedMPH,WindSpeedGustMPH,Humidity,HourlyPrecipIn,Conditions,Clouds,dailyrainin,SoftwareType,DateUTC
2014-02-27 00:02:00,17.5,9.0,29.83,West,272,8.0,16.0,68,0.00,,,0.00,weatherlink.com 1.10,2014-02-27 06:02:00,
2014-02-27 00:17:00,17.4,9.0,29.84,WNW,286,11.0,12.0,70,0.00,,,0.00,weatherlink.com 1.10,2014-02-27 06:17:00,
2014-02-27 00:32:00,18.0,10.0,29.84,West,265,12.0,14.0,70,0.00,,,0.00,weatherlink.com 1.10,2014-02-27 06:32:00,
2014-02-27 00:47:00,19.8,10.0,29.84,NW,304,10.0,18.0,67,0.00,,,0.00,weatherlink.com 1.10,2014-02-27 06:47:00,
2014-02-27 01:02:00,21.0,11.0,29.84,NW,322,8.0,23.0,65,0.00,,,0.00,weatherlink.com 1.10,2014-02-27 07:02:00,
2014-02-27 01:17:00,21.2,11.0,29.84,NW,326,20.0,31.0,64,0.00,,,0.00,weatherlink.com 1.10,2014-02-27 07:17:00,
2014-02-27 01:32:00,21.1,11.0,29.85,WSW,238,14.0,29.0,64,0.00,,,0.00,weatherlink.com 1.10,2014-02-27 07:32:00,
2014-02-27 01:47:00,20.2,10.0,29.86,NW,313,17.0,30.0,65,0.00,,,0.00,weatherlink.com 1.10,2014-02-27 07:47:00,
2014-02-27 02:02:00,19.0,9.0,29.86,NW,322,11.0,29.0,66,0.00,,,0.00,weatherlink.com 1.10,2014-02-27 08:02:00,
2014-02-27 02:17:00,17.6,9.0,29.87,West,265,4.0,28.0,70,0.00,,,0.00,weatherlink.com 1.10,2014-02-27 08:17:00,
2014-02-27 02:32:00,15.6,3.0,29.88,NW,314,23.0,33.0,58,0.00,,,0.00,weatherlink.com 1.10,2014-02-27 08:32:00,
2014-02-27 02:47:00,13.9,-5.0,29.89,NW,316,17.0,31.0,43,0.00,,,0.00,weatherlink.com 1.10,2014-02-27 08:47:00,
2014-02-27 03:02:00,12.6,-4.0,29.90,SSE,163,4.0,22.0,48,0.00,,,0.00,weatherlink.com 1.10,2014-02-27 09:02:00,
2014-02-27 03:17:00,11.7,-3.0,29.91,NNW,340,20.0,31.0,51,0.00,,,0.00,weatherlink.com 1.10,2014-02-27 09:17:00,
2014-02-27 03:32:00,11.1,-2.0,29.91,NW,307,7.0,25.0,55,0.00,,,0.00,weatherlink.com 1.10,2014-02-27 09:32:00,
2014-02-27 03:48:00,10.8,-2.0,29.93,NW,318,26.0,37.0,56,0.00,,,0.00,weatherlink.com 1.10,2014-02-27 09:48:00,
2014-02-27 04:05:00,10.2,-1.0,29.94,NNW,328,8.0,32.0,61,0.00,,,0.00,weatherlink.com 1.10,2014-02-27 10:05:00,
2014-02-27 04:18:00,9.8,0.0,29.94,NE,45,2.0,22.0,64,0.00,,,0.00,weatherlink.com 1.10,2014-02-27 10:18:00,
2014-02-27 04:33:00,9.5,0.0,29.95,SE,135,9.0,18.0,66,0.00,,,0.00,weatherlink.com 1.10,2014-02-27 10:33:00,
2014-02-27 04:48:00,9.4,0.0,29.96,ESE,104,4.0,23.0,65,0.00,,,0.00,weatherlink.com 1.10,2014-02-27 10:48:00,
2014-02-27 05:03:00,9.1,0.0,29.97,North,357,15.0,19.0,66,0.00,,,0.00,weatherlink.com 1.10,2014-02-27 11:03:00,
2014-02-27 05:18:00,8.7,-1.0,29.98,ENE,75,5.0,27.0,66,0.00,,,0.00,weatherlink.com 1.10,2014-02-27 11:18:00,
2014-02-27 05:33:00,8.3,-1.0,29.99,West,266,7.0,22.0,67,0.00,,,0.00,weatherlink.com 1.10,2014-02-27 11:33:00,
2014-02-27 05:48:00,8.1,-1.0,30.00,NNW,334,10.0,22.0,67,0.00,,,0.00,weatherlink.com 1.10,2014-02-27 11:48:00,
2014-02-27 06:03:00,7.7,-1.0,30.02,NNW,333,15.0,20.0,67,0.00,,,0.00,weatherlink.com 1.10,2014-02-27 12:03:00,
2014-02-27 06:18:00,7.2,-1.0,30.03,NW,307,10.0,26.0,69,0.00,,,0.00,weatherlink.com 1.10,2014-02-27 12:18:00,
2014-02-27 06:33:00,6.9,-1.0,30.04,East,95,12.0,21.0,69,0.00,,,0.00,weatherlink.com 1.10,2014-02-27 12:33:00,
2014-02-27 06:48:00,6.6,-2.0,30.06,North,6,12.0,24.0,69,0.00,,,0.00,weatherlink.com 1.10,2014-02-27 12:48:00,
2014-02-27 07:04:00,6.7,-1.0,30.06,South,176,6.0,21.0,70,0.00,,,0.00,weatherlink.com 1.10,2014-02-27 13:04:00,
2014-02-27 07:19:00,6.9,-2.0,30.07,NE,50,8.0,22.0,68,0.00,,,0.00,weatherlink.com 1.10,2014-02-27 13:19:00,
2014-02-27 07:34:00,7.4,-2.0,30.09,NW,324,20.0,20.0,67,0.00,,,0.00,weatherlink.com 1.10,2014-02-27 13:34:00,
2014-02-27 07:49:00,7.7,-3.0,30.10,NE,38,10.0,23.0,63,0.00,,,0.00,weatherlink.com 1.10,2014-02-27 13:49:00,
2014-02-27 08:04:00,8.0,-4.0,30.11,North,11,8.0,20.0,58,0.00,,,0.00,weatherlink.com 1.10,2014-02-27 14:04:00,
2014-02-27 08:19:00,8.4,-4.0,30.12,WSW,256,5.0,22.0,58,0.00,,,0.00,weatherlink.com 1.10,2014-02-27 14:19:00,
2014-02-27 08:34:00,8.4,-4.0,30.14,WNW,297,3.0,24.0,57,0.00,,,0.00,weatherlink.com 1.10,2014-02-27 14:34:00,
2014-02-27 08:49:00,8.3,-5.0,30.15,NNW,347,6.0,23.0,56,0.00,,,0.00,weatherlink.com 1.10,2014-02-27 14:49:00,
2014-02-27 09:04:00,8.5,-4.0,30.16,NNE,20,11.0,20.0,56,0.00,,,0.00,weatherlink.com 1.10,2014-02-27 15:04:00,
2014-02-27 09:19:00,8.4,-4.0,30.17,North,357,18.0,21.0,56,0.00,,,0.00,weatherlink.com 1.10,2014-02-27 15:19:00,
2014-02-27 09:34:00,8.8,-4.0,30.18,NW,326,13.0,22.0,56,0.00,,,0.00,weatherlink.com 1.10,2014-02-27 15:34:00,
2014-02-27 09:49:00,8.8,-4.0,30.18,ENE,68,7.0,21.0,55,0.00,,,0.00,weatherlink.com 1.10,2014-02-27 15:49:00,
2014-02-27 10:04:00,9.2,-5.0,30.19,NE,46,13.0,26.0,54,0.00,,,0.00,weatherlink.com 1.10,2014-02-27 16:04:00,
2014-02-27 10:20:00,9.3,-5.0,30.20,NW,307,8.0,23.0,52,0.00,,,0.00,weatherlink.com 1.10,2014-02-27 16:20:00,
2014-02-27 10:35:00,9.2,-6.0,30.20,West,268,4.0,25.0,51,0.00,,,0.00,weatherlink.com 1.10,2014-02-27 16:35:00,
2014-02-27 10:50:00,9.5,-6.0,30.21,SSE,168,4.0,20.0,49,0.00,,,0.00,weatherlink.com 1.10,2014-02-27 16:50:00,
2014-02-27 11:05:00,9.8,-6.0,30.21,NNW,330,8.0,20.0,50,0.00,,,0.00,weatherlink.com 1.10,2014-02-27 17:05:00,
2014-02-27 11:20:00,9.6,-6.0,30.21,ESE,114,4.0,21.0,49,0.00,,,0.00,weatherlink.com 1.10,2014-02-27 17:20:00,
2014-02-27 11:35:00,10.7,-6.0,30.22,SW,217,6.0,17.0,47,0.00,,,0.00,weatherlink.com 1.10,2014-02-27 17:35:00,
2014-02-27 11:51:00,10.5,-6.0,30.22,East,87,8.0,20.0,48,0.00,,,0.00,weatherlink.com 1.10,2014-02-27 17:51:00,
2014-02-27 12:05:00,10.8,-5.0,30.22,North,3,11.0,18.0,48,0.00,,,0.00,weatherlink.com 1.10,2014-02-27 18:05:00,
2014-02-27 12:20:00,11.1,-5.0,30.21,SE,141,6.0,18.0,49,0.00,,,0.00,weatherlink.com 1.10,2014-02-27 18:20:00,
2014-02-27 12:35:00,11.1,-4.0,30.21,ENE,63,6.0,22.0,50,0.00,,,0.00,weatherlink.com 1.10,2014-02-27 18:35:00,
2014-02-27 12:50:00,11.0,-6.0,30.21,NE,37,14.0,18.0,47,0.00,,,0.00,weatherlink.com 1.10,2014-02-27 18:50:00,
2014-02-27 13:05:00,12.0,-5.0,30.20,South,184,9.0,15.0,47,0.00,,,0.00,weatherlink.com 1.10,2014-02-27 19:05:00,
2014-02-27 13:20:00,11.7,-5.0,30.20,ENE,60,10.0,16.0,48,0.00,,,0.00,weatherlink.com 1.10,2014-02-27 19:20:00,
2014-02-27 13:51:00,11.7,-5.0,30.20,NW,309,4.0,17.0,48,0.00,,,0.00,weatherlink.com 1.10,2014-02-27 19:51:00,
2014-02-27 14:06:00,12.2,-4.0,30.20,ENE,72,7.0,13.0,48,0.00,,,0.00,weatherlink.com 1.10,2014-02-27 20:06:00,
2014-02-27 14:21:00,12.4,-4.0,30.20,NNE,20,7.0,13.0,49,0.00,,,0.00,weatherlink.com 1.10,2014-02-27 20:21:00,
2014-02-27 14:36:00,12.8,-3.0,30.20,NNE,23,6.0,12.0,50,0.00,,,0.00,weatherlink.com 1.10,2014-02-27 20:36:00,
2014-02-27 14:51:00,13.1,-2.0,30.20,ENE,70,2.0,13.0,50,0.00,,,0.00,weatherlink.com 1.10,2014-02-27 20:51:00,
2014-02-27 15:06:00,13.4,-2.0,30.20,East,87,5.0,12.0,51,0.00,,,0.00,weatherlink.com 1.10,2014-02-27 21:06:00,
2014-02-27 15:21:00,12.9,-3.0,30.20,NNE,15,7.0,19.0,50,0.00,,,0.00,weatherlink.com 1.10,2014-02-27 21:21:00,
2014-02-27 15:36:00,13.3,-1.0,30.20,WNW,302,5.0,12.0,52,0.00,,,0.00,weatherlink.com 1.10,2014-02-27 21:36:00,
2014-02-27 15:51:00,13.8,-3.0,30.20,NNE,27,9.0,11.0,48,0.00,,,0.00,weatherlink.com 1.10,2014-02-27 21:51:00,
2014-02-27 16:06:00,13.1,-2.0,30.20,NW,312,2.0,15.0,50,0.00,,,0.00,weatherlink.com 1.10,2014-02-27 22:06:00,
2014-02-27 16:21:00,12.2,-3.0,30.20,ENE,77,6.0,14.0,51,0.00,,,0.00,weatherlink.com 1.10,2014-02-27 22:21:00,
2014-02-27 16:36:00,12.7,-3.0,30.21,East,99,1.0,13.0,50,0.00,,,0.00,weatherlink.com 1.10,2014-02-27 22:36:00,
2014-02-27 16:52:00,12.2,-3.0,30.21,NNE,32,7.0,12.0,52,0.00,,,0.00,weatherlink.com 1.10,2014-02-27 22:52:00,
2014-02-27 17:07:00,11.8,-2.0,30.22,NNE,31,10.0,11.0,53,0.00,,,0.00,weatherlink.com 1.10,2014-02-27 23:07:00,
2014-02-27 17:22:00,11.4,-3.0,30.22,North,351,3.0,10.0,53,0.00,,,0.00,weatherlink.com 1.10,2014-02-27 23:22:00,
2014-02-27 17:37:00,9.9,-3.0,30.22,NE,53,4.0,7.0,55,0.00,,,0.00,weatherlink.com 1.10,2014-02-27 23:37:00,
2014-02-27 17:52:00,8.6,-4.0,30.23,East,86,3.0,6.0,58,0.00,,,0.00,weatherlink.com 1.10,2014-02-27 23:52:00,
2014-02-27 18:07:00,8.0,-4.0,30.23,ENE,71,4.0,6.0,59,0.00,,,0.00,weatherlink.com 1.10,2014-02-28 00:07:00,
2014-02-27 18:22:00,7.3,-4.0,30.23,NE,42,4.0,7.0,61,0.00,,,0.00,weatherlink.com 1.10,2014-02-28 00:22:00,
2014-02-27 18:37:00,6.9,-3.0,30.24,NE,34,3.0,6.0,64,0.00,,,0.00,weatherlink.com 1.10,2014-02-28 00:37:00,
2014-02-27 19:07:00,6.3,-4.0,30.24,East,87,2.0,5.0,64,0.00,,,0.00,weatherlink.com 1.10,2014-02-28 01:07:00,
2014-02-27 19:22:00,6.1,-4.0,30.24,ENE,72,1.0,4.0,64,0.00,,,0.00,weatherlink.com 1.10,2014-02-28 01:22:00,
2014-02-27 19:37:00,6.0,-4.0,30.24,ENE,58,1.0,5.0,65,0.00,,,0.00,weatherlink.com 1.10,2014-02-28 01:37:00,
2014-02-27 19:52:00,5.8,-3.0,30.24,ENE,65,1.0,3.0,66,0.00,,,0.00,weatherlink.com 1.10,2014-02-28 01:52:00,
2014-02-27 20:07:00,5.7,-3.0,30.24,ENE,62,2.0,3.0,68,0.00,,,0.00,weatherlink.com 1.10,2014-02-28 02:07:00,
2014-02-27 20:23:00,5.9,-2.0,30.24,ENE,75,3.0,6.0,69,0.00,,,0.00,weatherlink.com 1.10,2014-02-28 02:23:00,
2014-02-27 20:38:00,5.6,-3.0,30.25,East,98,4.0,6.0,69,0.00,,,0.00,weatherlink.com 1.10,2014-02-28 02:38:00,
2014-02-27 20:53:00,5.4,-3.0,30.24,East,83,4.0,7.0,69,0.00,,,0.00,weatherlink.com 1.10,2014-02-28 02:53:00,
2014-02-27 21:08:00,5.4,-2.0,30.24,ESE,106,3.0,9.0,70,0.00,,,0.00,weatherlink.com 1.10,2014-02-28 03:08:00,
2014-02-27 21:23:00,5.2,-3.0,30.24,East,101,1.0,8.0,70,0.00,,,0.00,weatherlink.com 1.10,2014-02-28 03:23:00,
2014-02-27 21:38:00,5.1,-3.0,30.25,East,100,4.0,6.0,70,0.00,,,0.00,weatherlink.com 1.10,2014-02-28 03:38:00,
2014-02-27 21:53:00,5.0,-3.0,30.25,SE,144,1.0,5.0,71,0.00,,,0.00,weatherlink.com 1.10,2014-02-28 03:53:00,
2014-02-27 22:08:00,4.8,-2.0,30.25,ESE,115,2.0,4.0,72,0.00,,,0.00,weatherlink.com 1.10,2014-02-28 04:08:00,
2014-02-27 22:23:00,4.7,-2.0,30.26,ESE,112,2.0,4.0,73,0.00,,,0.00,weatherlink.com 1.10,2014-02-28 04:23:00,
2014-02-27 22:38:00,4.6,-2.0,30.25,East,82,3.0,4.0,73,0.00,,,0.00,weatherlink.com 1.10,2014-02-28 04:38:00,
2014-02-27 22:53:00,4.5,-2.0,30.25,ESE,107,4.0,5.0,74,0.00,,,0.00,weatherlink.com 1.10,2014-02-28 04:53:00,
2014-02-27 23:08:00,4.4,-2.0,30.25,ESE,113,0.0,4.0,74,0.00,,,0.00,weatherlink.com 1.10,2014-02-28 05:08:00,
2014-02-27 23:23:00,4.4,-2.0,30.26,ENE,74,1.0,3.0,74,0.00,,,0.00,weatherlink.com 1.10,2014-02-28 05:23:00,
2014-02-27 23:39:00,4.3,-2.0,30.26,East,101,0.0,3.0,74,0.00,,,0.00,weatherlink.com 1.10,2014-02-28 05:39:00,
2014-02-27 23:54:00,4.3,-2.0,30.26,East,96,2.0,3.0,75,0.00,,,0.00,weatherlink.com 1.10,2014-02-28 05:54:00,